STARLINK-35631, 66121

Orbit data source: Space-Track

STARLINK-35631, 66121 is a payload satellite owned by SpaceX/Seattle (US) in LEO that was launched on Wed, 22 Oct 2025 UTC via an FALCON 9 launch vehicle from the Air Force Western Test Range (AFWTR). Payload-class satellites include a variety of spacecraft equipped with specific instruments for various scientific and technological missions. These include communications satellites like Starlink; space stations such as the ISS; scientific satellites like the Hubble; Earth observation satellites from companies like Planet Labs, Umbra, and HawkEye 360; GPS; miniature CubeSats for education and research; and military/defense satellites.

Loading next visibility...
Identifier
66121, 2025-237H
Orbit
LEO
Country
Flag of USUS
Related business
Manufacturer
SpaceX/Seattle
Mission
Operational spacecraft
Bus & Motor
STARLINK V2MO, Unknown motor
Mass
575 kg wet, ~530 kg dry
Launch date (UTC)
2025-10-22 (2 weeks ago)
Launch vehicle
FALCON 9
Launch site
Air Force Western Test Range (AFWTR)
Object type
Payload
Rocket body
Debris
Shape & HBR
Unknown shape, 17.7 m
Radar Cross Section
RCS unknown

Expand to show TLE details & history
Last TLE update: 7 hours ago

TLE from 7 hours ago
0 STARLINK-35631
1 66121U 25237H   25312.16668980 -.01835778  00000-0 -16945-1 0  9999
2 66121  53.1596 251.4217 0001030 101.7094 184.1437 15.70303139  3929
Epoch: 2025-11-08T04:00Z
TLE epoch observation values (Epoch: 2025-11-08T04:00:01.998Z)
Latitude
-50.51312°
Longitude
79.10003°
Altitude
376.158 km
Speed
7.683 km/s
True Right ascension
12h 26m 50s
True Declination
-50° 20' 05"
Sunlit
Object was in daylight at epoch
Visualization orbit readout
Latitude
Unknown
Longitude
Unknown
Altitude
Unknown
Speed
Unknown
Apparent Right ascension
Unknown
Apparent Declination
Unknown
Sunlit
N/A
Visualization observer readout
Local Sidereal Time
06:46:26
Azimuth
Unknown
Elevation
Unknown
Doppler factor
Unknown
Orbital elements
Apogee altitude
358.985 km
Perigee altitude
357.597 km
Semi-major axis
6,736.428 km
Eccentricity
0.0001
Inclination
53.1596°
RAAN
251.4217°
Arg. of periapsis
101.7094°
True anomaly
184.14285°
Mean anomaly
184.1437°
Eccentric anomaly
184.14327°
Mean motion
3.92553 °/min
Orbital period
91.71 mins
BSTAR
-0.016945
Loading maneuver chart data...
Computing Atmospheric mass density...
Loading historical data...
Loading historical data...
Loading historical data...
Loading historical data...
Loading historical data...
Loading historical data...
Loading historical data...

Documentation

Showing up to 5 results
|